FDX530 KMIA-KATL

Flight info

Callsign FDX530
Flight time N/A
Altitude 36000
Route FLMGO2 STYMY Q77 MJAMS/N0482F410 Q77 SHRKS/N0482F400 LAIRI LARZZ JJEDI4
Aircraft B77L/H-SDE1E2E3FGHIJ2J3J4J5M1RWXY/LB1D1

Departure

Time 2026-05-04 15:08
Airport Miami International Airport (KMIA)

Arrival

Time N/A
Airport Hartsfield Jackson Atlanta International Airport (KATL)
Time Latitude Longitude Altitude Speed Heading
2026-05-04 14:49 25.80507 -80.29511 23 ft 0 kts 358°
2026-05-04 15:00 25.80496 -80.29510 22 ft 3 kts 358°
2026-05-04 15:01 25.80458 -80.29508 27 ft 2 kts 357°
2026-05-04 15:01 25.80442 -80.29506 27 ft 3 kts 320°
2026-05-04 15:01 25.80432 -80.29490 26 ft 3 kts 285°
2026-05-04 15:01 25.80429 -80.29470 27 ft 2 kts 270°
2026-05-04 15:02 25.80429 -80.29466 27 ft 1 kts 269°
2026-05-04 15:03 25.80428 -80.29494 26 ft 16 kts 269°
2026-05-04 15:04 25.80422 -80.29687 27 ft 25 kts 265°
2026-05-04 15:04 25.80411 -80.29884 27 ft 26 kts 268°
2026-05-04 15:04 25.80408 -80.30005 26 ft 7 kts 268°
2026-05-04 15:04 25.80406 -80.30070 24 ft 12 kts 268°
2026-05-04 15:05 25.80337 -80.30147 25 ft 18 kts 185°
2026-05-04 15:05 25.80208 -80.30140 24 ft 18 kts 175°
2026-05-04 15:05 25.80155 -80.30136 21 ft 7 kts 175°
2026-05-04 15:05 25.80102 -80.30122 20 ft 9 kts 154°
2026-05-04 15:06 25.80073 -80.30060 19 ft 0 kts 85°
2026-05-04 15:06 25.80073 -80.30059 19 ft 0 kts 85°
2026-05-04 15:07 25.80080 -80.29938 18 ft 40 kts 88°
2026-05-04 15:07 25.80113 -80.29257 28 ft 143 kts 86°
2026-05-04 15:07 25.80155 -80.27868 207 ft 202 kts 86°
2026-05-04 15:07 25.80192 -80.26215 580 ft 226 kts 87°
2026-05-04 15:08 25.80236 -80.24349 1171 ft 255 kts 84°
2026-05-04 15:08 25.80359 -80.22392 2617 ft 258 kts 84°
2026-05-04 15:08 25.80468 -80.20359 3874 ft 268 kts 84°
2026-05-04 15:08 25.80835 -80.18345 5048 ft 271 kts 63°
2026-05-04 15:09 25.82025 -80.16706 6246 ft 275 kts 33°
2026-05-04 15:09 25.83789 -80.15918 7404 ft 277 kts
2026-05-04 15:09 25.85728 -80.15804 8441 ft 284 kts 358°
2026-05-04 15:10 25.89699 -80.15792 10779 ft 288 kts 345°
2026-05-04 15:10 25.91707 -80.16436 11410 ft 315 kts 335°
2026-05-04 15:10 25.96348 -80.18163 12609 ft 377 kts 337°
2026-05-04 15:11 25.98807 -80.19153 13779 ft 375 kts 327°
2026-05-04 15:11 26.00868 -80.20851 14777 ft 366 kts 311°
2026-05-04 15:11 26.02758 -80.22824 15732 ft 378 kts 312°
2026-05-04 15:11 26.04714 -80.24816 16855 ft 385 kts 313°
2026-05-04 15:12 26.06719 -80.26830 17994 ft 391 kts 313°
2026-05-04 15:12 26.08765 -80.28872 18958 ft 398 kts 313°
2026-05-04 15:12 26.10817 -80.30914 19878 ft 404 kts 313°
2026-05-04 15:12 26.12925 -80.33008 20866 ft 408 kts 314°